This demonstration page uses our WeatherBlox Daily Observations layout. Learn more.

Left ArrowRight Arrow

Hourly Observations for December 7, 2022

Temp ( °F °C ) Dew Point ( °F °C ) Humidity (%) Winds ( mph kmh ) Pressure ( in mb ) Visibility ( mi km ) Precip ( " mm )
12:13 am 00:13 Cloudy with Mist and Fog 42 5.6 42 5.6 100 100 NNW 5 7 30.11 1020 2 3 0.00 0.00
12:23 am 00:23 Cloudy with Mist and Fog 42 5.6 42 5.6 100 100 NNW 5 7 30.11 1020 2 3 0.00 0.00
12:31 am 00:31 Cloudy with Mist and Fog 42 5.6 42 5.6 100 100 NNW 5 7 30.11 1020 2 2 0.00 0.00
12:52 am 00:52 Cloudy with Mist and Fog 42 5.6 42 5.6 100 100 NNW 6 9 30.08 1019 2 3 0.00 0.00
1:52 am 01:52 Cloudy with Mist and Fog 42 5.6 42 5.6 100 100 NW 3 6 30.10 1019 2 3 0.00 0.00
2:04 am 02:04 Cloudy with Mist and Fog 42 5.6 42 5.6 100 100 Calm 30.14 1021 3 5 0.00 0.00
2:13 am 02:13 Cloudy with Mist and Fog 42 5.6 42 5.6 100 100 NW 3 6 30.14 1021 3 4 0.00 0.00
2:22 am 02:22 Cloudy with Mist and Fog 42 5.6 42 5.6 100 100 NW 5 7 30.16 1021 1 2 0.00 0.00
2:31 am 02:31 Mostly Clear with Mist and Fog 42 5.6 42 5.6 100 100 NW 5 7 30.16 1021 1 1 0.00 0.00
2:52 am 02:52 Mostly Clear with Mist and Fog 42 5.6 42 5.6 100 100 Calm 30.11 1020 1 1 0.00 0.00
3:05 am 03:05 Mostly Clear with Mist and Fog 43 6.1 42 5.6 97 97 Calm 30.15 1021 1 2 0.00 0.00
3:29 am 03:29 Mostly Clear with Mist and Fog 42 5.6 42 5.6 100 100 W 3 6 30.17 1022 1 1 0.00 0.00
3:52 am 03:52 Mostly Clear with Mist and Fog 42 5.6 42 5.6 100 100 Calm 30.13 1020 1 1 0.00 0.00
4:41 am 04:41 Mostly Clear with Mist and Fog 42 5.6 42 5.6 100 100 Calm 30.16 1021 1 2 0.00 0.00
4:52 am 04:52 Mostly Clear with Mist and Fog 42 5.6 41 5 96 96 NNW 5 7 30.14 1021 1 1 0.00 0.00
5:52 am 05:52 Mostly Clear with Fog 42 5.6 42 5.6 100 100 Calm 30.15 1021 1 1 0.00 0.00
6:52 am 06:52 Mostly Clear with Mist and Fog 42 5.6 42 5.6 100 100 S 3 6 30.19 1022 1 1 0.00 0.00
7:00 am 07:00 Cloudy with Mist and Fog 42 5.6 42 5.6 100 100 Calm 30.21 1023 1 2 0.00 0.00
7:14 am 07:14 Mostly Clear with Mist and Fog 42 5.6 41 5 96 96 Calm 30.21 1023 1 1 0.00 0.00
7:48 am 07:48 Partly Cloudy with Fog 43 6 43 6 100 100 Calm 30.23 1024 0 0 0.00 0.00
7:52 am 07:52 Partly Cloudy with Fog 42 5.6 42 5.6 100 100 Calm 30.22 1023 0 0 0.00 0.00
8:52 am 08:52 Partly Cloudy with Fog 43 6.1 42 5.6 97 97 ESE 5 7 30.22 1024 0 0 0.00 0.00
9:52 am 09:52 Partly Cloudy with Fog 44 6.7 43 6.1 96 96 NE 5 7 30.24 1024 0 0 0.00 0.00
10:13 am 10:13 Partly Cloudy with Mist and Fog 44 6.7 43 6.1 96 96 NNE 6 9 30.26 1025 1 2 0.00 0.00
10:35 am 10:35 Cloudy with Mist and Fog 44 6.7 43 6.1 96 96 NE 7 11 30.26 1025 3 5 0.00 0.00
10:52 am 10:52 Cloudy with Mist and Fog 45 7.2 44 6.7 97 97 NE 6 9 30.24 1024 2 3 0.00 0.00
10:59 am 10:59 Cloudy with Mist and Fog 45 7.2 43 6.1 93 93 E 5 7 30.26 1025 6 10 0.00 0.00
11:52 am 11:52 Cloudy 47 8.3 44 6.7 90 90 NE 3 6 30.24 1024 10 16 0.00 0.00
12:52 pm 12:52 Cloudy 50 10 45 7.2 83 83 NE 5 7 30.22 1023 10 16 0.00 0.00
1:04 pm 13:04 Cloudy 50 10 45 7.2 83 83 NNE 3 6 30.22 1023 10 16 0.00 0.00
1:39 pm 13:39 Mostly Cloudy 51 10.6 45 7.2 79 79 NNE 5 7 30.22 1023 10 16 0.00 0.00
1:52 pm 13:52 Mostly Cloudy 51 10.6 45 7.2 79 79 NE 5 7 30.21 1023 10 16 0.00 0.00
2:52 pm 14:52 Cloudy 51 10.6 45 7.2 79 79 NNE 9 15 30.21 1023 10 16 0.00 0.00
3:52 pm 15:52 Cloudy 49 9.4 44 6.7 83 83 NNE 9 15 30.24 1024 10 16 0.00 0.00
4:52 pm 16:52 Cloudy 48 8.9 44 6.7 86 86 NE 7 11 30.24 1024 10 16 0.00 0.00
5:41 pm 17:41 Cloudy 48 8.9 44 6.7 86 86 NE 8 13 30.25 1024 10 16 0.00 0.00
5:52 pm 17:52 Cloudy 48 8.9 44 6.7 86 86 NE 7 11 30.25 1024 10 16 0.00 0.00
6:11 pm 18:11 Cloudy 48 8.9 44 6.7 86 86 NNE 8 13 30.26 1025 10 16 0.00 0.00
6:47 pm 18:47 Cloudy 48 9 45 7 87 87 ENE 10 17 30.25 1024 10 16 0.00 0.00
6:52 pm 18:52 Cloudy 48 8.9 44 6.7 86 86 ENE 8 13 30.24 1024 10 16 0.00 0.00
7:52 pm 19:52 Cloudy 47 8.3 45 7.2 93 93 ENE 6 9 30.24 1024 9 14 0.01 0.13
8:15 pm 20:15 Cloudy with Light Rain 48 8.9 45 7.2 89 89 E 9 15 30.25 1024 9 14 0.01 0.13
8:52 pm 20:52 Cloudy with Light Rain 47 8.3 45 7.2 93 93 ENE 3 6 30.23 1024 8 13 0.01 0.13
9:38 pm 21:38 Cloudy with Light Rain 47 8.3 45 7.2 93 93 NNE 8 13 30.26 1025 6 10 0.01 0.25
9:52 pm 21:52 Cloudy with Light Rain 47 8.3 46 7.8 97 97 ENE 8 13 30.24 1024 5 8 0.02 0.51
10:47 pm 22:47 Cloudy with Rain 46 8 46 8 100 100 ENE 6 9 30.25 1024 4 6 0.06 1.52
10:52 pm 22:52 Cloudy with Rain 47 8.3 46 7.8 97 97 ENE 6 9 30.23 1024 4 6 0.08 2.03
11:50 pm 23:50 Cloudy with Light Rain 46 8 46 8 100 100 Calm 30.24 1024 4 6 0.08 2.03
11:52 pm 23:52 Cloudy with Light Rain 47 8.3 46 7.8 97 97 Calm 30.22 1024 4 6 0.08 2.03

Powered by AerisWeather